sat.trackr.live / text

‹ back to catalog

STARLINK-1954

NORAD 47555 · 2021-009H

PAYLOAD ACTIVE UNKNOWN

§ Identity

Operator
Country
US
Launch date
2021-02-04
Launch site
AFETR
Launch vehicle
Mass (kg)
RCS (m²)

Purposes: comms

External: N2YO · Heavens-Above · Gunter

§ Orbital elements

Epoch: 2026-09-20T03:53:11.749056Z

Period
92.86 min
Inclination
53.0458°
Eccentricity
0.0003883
Mean motion
15.50642885 rev/d
Perigee alt
412.2 km
Apogee alt
417.5 km
Semi-major
6,793.0 km
B*
6.7778e-4
RAAN
169.7422°
Arg perigee
103.7159°
Mean anomaly
256.4281°
Rev number
31,094

§ Raw data

STARLINK-19541 47555U 21009H   26263.16194154  .00039270  00000+0  67778-3 0  99962 47555  53.0458 169.7422 0003883 103.7159 256.4281 15.50642885310941

JSON: /api/v1/satellites/47555 · /tle

For live sub-satellite position, see the globe view (requires WebGL).

§ Visibility from observer

Set your observer location to see the next 7 days of passes ≥ 10°. The values pass through the URL so the page stays shareable.

No JS? Fill the form by hand. The geolocation button needs JavaScript.